| time (UTC) | temp F | wind direction | speed knots | gust knots | rain 1hr in | rain 24hr in | rain mn in | humidity % | barometer mb |
| 20260504081524 | 44 | 199 | 0.9 | 0.9 | 0.00 | 0.00 | 0.00 | 62 | |
| 20260504081019 | 44 | 192 | 0.9 | 0.9 | 0.00 | 0.00 | 0.00 | 61 | |
| 20260504080516 | 44 | 192 | 0.9 | 2.6 | 0.00 | 0.00 | 0.00 | 61 | |
| 20260504050328 | 40 | 175 | 0.0 | 0.0 | 0.00 | 0.00 | 0.00 | 67 | |
| 20260504045826 | 40 | 184 | 0.0 | 0.0 | 0.00 | 0.00 | 0.00 | 66 | |
| 20260504045320 | 40 | 181 | 0.0 | 0.0 | 0.00 | 0.00 | 0.00 | 65 | |
| 20260504044818 | 40 | 167 | 0.0 | 0.0 | 0.00 | 0.00 | 0.00 | 66 | |
| 20260504044315 | 40 | 167 | 0.0 | 0.0 | 0.00 | 0.00 | 0.00 | 65 | |
| 20260504043812 | 40 | 171 | 0.0 | 0.0 | 0.00 | 0.00 | 0.00 | 64 | |
| 20260504043309 | 41 | 160 | 0.0 | 0.0 | 0.00 | 0.00 | 0.00 | 63 | |
| 20260504042807 | 41 | 196 | 0.0 | 0.0 | 0.00 | 0.00 | 0.00 | 62 | |
| 20260504042304 | 41 | 213 | 0.9 | 0.9 | 0.00 | 0.00 | 0.00 | 62 | |
| 20260504041759 | 40 | 191 | 0.0 | 0.9 | 0.00 | 0.00 | 0.00 | 62 | |
| 20260504041255 | 40 | 196 | 0.0 | 0.9 | 0.00 | 0.00 | 0.00 | 63 | |
| 20260504040752 | 40 | 189 | 0.0 | 0.9 | 0.00 | 0.00 | 0.00 | 64 | |
| 20260504040249 | 39 | 170 | 0.0 | 0.0 | 0.00 | 0.00 | 0.00 | 65 | |
| 20260504035745 | 39 | 163 | 0.0 | 0.0 | 0.00 | 0.00 | 0.00 | 65 | |
| 20260504035242 | 40 | 163 | 0.0 | 0.0 | 0.00 | 0.00 | 0.00 | 65 | |
| 20260504034740 | 40 | 178 | 0.0 | 0.0 | 0.00 | 0.00 | 0.00 | 65 | |
| 20260504034237 | 40 | 180 | 0.0 | 0.9 | 0.00 | 0.00 | 0.00 | 64 | |
| 20260504033734 | 40 | 179 | 0.0 | 0.0 | 0.00 | 0.00 | 0.00 | 64 | |
| 20260504033232 | 41 | 176 | 0.0 | 0.0 | 0.00 | 0.00 | 0.00 | 64 | |
| 20260504032728 | 41 | 183 | 0.0 | 0.0 | 0.00 | 0.00 | 0.00 | 62 | |
| 20260504032226 | 41 | 182 | 0.0 | 0.0 | 0.00 | 0.00 | 0.00 | 63 | |
| 20260504031722 | 41 | 189 | 0.0 | 0.0 | 0.00 | 0.00 | 0.00 | 61 | |
| 20260504031220 | 42 | 192 | 0.0 | 0.0 | 0.00 | 0.00 | 0.00 | 61 | |
| 20260504030715 | 42 | 192 | 0.0 | 0.9 | 0.00 | 0.00 | 0.00 | 60 | |
| 20260504030213 | 41 | 185 | 0.9 | 0.9 | 0.00 | 0.00 | 0.00 | 60 | |
| 20260504025709 | 41 | 186 | 0.0 | 0.9 | 0.00 | 0.00 | 0.00 | 62 | |
| 20260504025206 | 42 | 183 | 0.0 | 0.0 | 0.00 | 0.00 | 0.00 | 62 | |
| 20260504024703 | 42 | 183 | 0.0 | 0.0 | 0.00 | 0.00 | 0.00 | 61 | |
| 20260504024200 | 42 | 183 | 0.0 | 0.0 | 0.00 | 0.00 | 0.00 | 61 | |
| 20260504023656 | 42 | 167 | 0.0 | 0.0 | 0.00 | 0.00 | 0.00 | 60 | |
| 20260504023152 | 42 | 164 | 0.0 | 0.0 | 0.00 | 0.00 | 0.00 | 60 | |
| 20260504022649 | 42 | 165 | 0.0 | 0.0 | 0.00 | 0.00 | 0.00 | 60 | |
| 20260504022144 | 42 | 167 | 0.0 | 0.0 | 0.00 | 0.00 | 0.00 | 60 | |
| 20260504021643 | 43 | 175 | 0.0 | 0.0 | 0.00 | 0.00 | 0.00 | 60 | |
| 20260504021139 | 43 | 175 | 0.0 | 0.0 | 0.00 | 0.00 | 0.00 | 59 | |
| 20260504020636 | 44 | 161 | 0.0 | 0.0 | 0.00 | 0.00 | 0.00 | 58 | |
| 20260504020132 | 44 | 199 | 0.9 | 0.9 | 0.00 | 0.00 | 0.00 | 55 | |
| 20260504015629 | 45 | 181 | 0.0 | 0.0 | 0.00 | 0.00 | 0.00 | 55 | |
| 20260504015125 | 46 | 161 | 0.0 | 2.6 | 0.00 | 0.00 | 0.00 | 53 | |
| 20260504014621 | 46 | 191 | 0.0 | 0.9 | 0.00 | 0.00 | 0.00 | 51 | |
| 20260504014119 | 46 | 201 | 0.9 | 2.6 | 0.00 | 0.00 | 0.00 | 50 | |
| 20260504013616 | 46 | 174 | 0.0 | 0.9 | 0.00 | 0.00 | 0.00 | 50 | |
| 20260504013113 | 46 | 196 | 0.0 | 0.0 | 0.00 | 0.00 | 0.00 | 50 | |
| 20260504012610 | 46 | 190 | 0.0 | 0.0 | 0.00 | 0.00 | 0.00 | 50 | |
| 20260504012108 | 46 | 192 | 0.0 | 0.9 | 0.00 | 0.00 | 0.00 | 50 | |
| 20260504011605 | 46 | 191 | 0.0 | 0.9 | 0.00 | 0.00 | 0.00 | 50 | |
| 20260504011101 | 47 | 194 | 0.0 | 0.9 | 0.00 | 0.00 | 0.00 | 50 | |
| 20260504010556 | 47 | 203 | 0.9 | 0.9 | 0.00 | 0.00 | 0.00 | 49 | |
| 20260504010053 | 47 | 191 | 0.0 | 0.9 | 0.00 | 0.00 | 0.00 | 49 | |
| 20260504005549 | 47 | 195 | 0.0 | 0.9 | 0.00 | 0.00 | 0.00 | 49 | |
| 20260504005047 | 47 | 208 | 0.9 | 0.9 | 0.00 | 0.00 | 0.00 | 48 | |
| 20260504004545 | 47 | 202 | 0.0 | 0.0 | 0.00 | 0.00 | 0.00 | 48 | |
| 20260504004041 | 47 | 195 | 0.9 | 0.9 | 0.00 | 0.00 | 0.00 | 48 | |
| 20260504003537 | 48 | 201 | 0.9 | 2.6 | 0.00 | 0.00 | 0.00 | 48 | |
| 20260504003034 | 48 | 201 | 0.9 | 2.6 | 0.00 | 0.00 | 0.00 | 47 | |
| 20260504002531 | 48 | 198 | 0.9 | 2.6 | 0.00 | 0.00 | 0.00 | 47 | |
| 20260504002029 | 48 | 189 | 0.9 | 2.6 | 0.00 | 0.00 | 0.00 | 47 | |
| 20260504001527 | 48 | 244 | 2.6 | 3.5 | 0.00 | 0.00 | 0.00 | 46 | |
| 20260504001022 | 49 | 239 | 2.6 | 3.5 | 0.00 | 0.00 | 0.00 | 46 | |
| 20260504000520 | 49 | 236 | 0.9 | 5.2 | 0.00 | 0.00 | 0.00 | 46 | |
| 20260504000017 | 49 | 256 | 6.1 | 8.7 | 0.00 | 0.00 | 0.00 | 45 | |
| 20260503235515 | 49 | 260 | 7.0 | 8.7 | 0.00 | 0.00 | 0.00 | 45 | |
| 20260503235012 | 49 | 246 | 1.7 | 9.6 | 0.00 | 0.00 | 0.00 | 44 | |
| 20260503234509 | 50 | 215 | 2.6 | 8.7 | 0.00 | 0.00 | 0.00 | 44 | |
| 20260503234008 | 50 | 289 | 4.3 | 8.7 | 0.00 | 0.00 | 0.00 | 43 | |
| 20260503233504 | 50 | 247 | 7.0 | 7.8 | 0.00 | 0.00 | 0.00 | 43 | |
| 20260503233000 | 50 | 254 | 6.1 | 12.2 | 0.00 | 0.00 | 0.00 | 43 | |
| 20260503232457 | 50 | 283 | 7.0 | 8.7 | 0.00 | 0.00 | 0.00 | 43 | |
| 20260503231955 | 51 | 259 | 5.2 | 14.8 | 0.00 | 0.00 | 0.00 | 42 | |
| 20260503231452 | 51 | 269 | 9.6 | 11.3 | 0.00 | 0.00 | 0.00 | 41 | |
| 20260503230948 | 51 | 223 | 7.8 | 13.9 | 0.00 | 0.00 | 0.00 | 41 | |
| 20260503230445 | 51 | 289 | 8.7 | 13.9 | 0.00 | 0.00 | 0.00 | 41 | |
| 20260503225943 | 51 | 250 | 3.5 | 9.6 | 0.00 | 0.00 | 0.00 | 41 | |
| 20260503225439 | 51 | 256 | 7.0 | 12.2 | 0.00 | 0.00 | 0.00 | 41 | |
| 20260503224935 | 52 | 275 | 7.8 | 11.3 | 0.00 | 0.00 | 0.00 | 41 | |
| 20260503224432 | 51 | 251 | 4.3 | 9.6 | 0.00 | 0.00 | 0.00 | 41 | |
| 20260503223930 | 52 | 226 | 7.8 | 11.3 | 0.00 | 0.00 | 0.00 | 41 | |
| 20260503223427 | 52 | 226 | 2.6 | 9.6 | 0.00 | 0.00 | 0.00 | 40 | |
| 20260503222922 | 52 | 254 | 4.3 | 11.3 | 0.00 | 0.00 | 0.00 | 40 | |
| 20260503222422 | 52 | 239 | 3.5 | 11.3 | 0.00 | 0.00 | 0.00 | 41 | |
| 20260503221920 | 53 | 252 | 6.1 | 8.7 | 0.00 | 0.00 | 0.00 | 39 | |
| 20260503221417 | 52 | 191 | 0.9 | 6.1 | 0.00 | 0.00 | 0.00 | 40 | |
| 20260503220914 | 53 | 303 | 5.2 | 11.3 | 0.00 | 0.00 | 0.00 | 39 | |
| 20260503220410 | 53 | 227 | 2.6 | 11.3 | 0.00 | 0.00 | 0.00 | 39 | |
| 20260503215908 | 53 | 236 | 4.3 | 7.8 | 0.00 | 0.00 | 0.00 | 41 | |
| 20260503215404 | 52 | 230 | 6.1 | 11.3 | 0.00 | 0.00 | 0.00 | 40 | |
| 20260503214902 | 52 | 229 | 1.7 | 2.6 | 0.00 | 0.00 | 0.00 | 40 | |
| 20260503214359 | 52 | 243 | 7.0 | 14.8 | 0.00 | 0.00 | 0.00 | 39 | |
| 20260503213856 | 53 | 258 | 9.6 | 11.3 | 0.00 | 0.00 | 0.00 | 39 | |
| 20260503213354 | 53 | 245 | 7.8 | 9.6 | 0.00 | 0.00 | 0.00 | 40 | |
| 20260503212850 | 52 | 265 | 6.1 | 11.3 | 0.00 | 0.00 | 0.00 | 40 | |
| 20260503212349 | 53 | 273 | 5.2 | 9.6 | 0.00 | 0.00 | 0.00 | 39 | |
| 20260503211845 | 53 | 242 | 7.0 | 11.3 | 0.00 | 0.00 | 0.00 | 38 | |
| 20260503211342 | 52 | 236 | 4.3 | 6.1 | 0.00 | 0.00 | 0.00 | 41 | |
| 20260503210837 | 52 | 281 | 5.2 | 13.9 | 0.00 | 0.00 | 0.00 | 40 | |
| 20260503210335 | 52 | 274 | 4.3 | 12.2 | 0.00 | 0.00 | 0.00 | 41 | |
| 20260503205830 | 52 | 277 | 5.2 | 7.8 | 0.00 | 0.00 | 0.00 | 40 | |
| 20260503205327 | 52 | 273 | 8.7 | 9.6 | 0.00 | 0.00 | 0.00 | 39 | |
| 20260503204823 | 51 | 241 | 5.2 | 7.8 | 0.00 | 0.00 | 0.00 | 40 | |
| 20260503204321 | 52 | 252 | 3.5 | 9.6 | 0.00 | 0.00 | 0.00 | 41 | |
| 20260503203818 | 53 | 285 | 5.2 | 8.7 | 0.00 | 0.00 | 0.00 | 41 | |
| 20260503203315 | 51 | 256 | 5.2 | 7.8 | 0.00 | 0.00 | 0.00 | 41 | |
| 20260503202812 | 51 | 199 | 3.5 | 6.1 | 0.00 | 0.00 | 0.00 | 42 | |
| 20260503202310 | 52 | 225 | 6.1 | 7.8 | 0.00 | 0.00 | 0.00 | 40 | |
| 20260503201808 | 51 | 256 | 7.0 | 13.9 | 0.00 | 0.00 | 0.00 | 42 | |
| 20260503201305 | 51 | 225 | 3.5 | 8.7 | 0.00 | 0.00 | 0.00 | 41 | |
| 20260503200802 | 52 | 261 | 7.8 | 11.3 | 0.00 | 0.00 | 0.00 | 42 | |
| 20260503200258 | 52 | 273 | 6.1 | 13.9 | 0.00 | 0.00 | 0.00 | 42 | |
| 20260503195755 | 50 | 272 | 5.2 | 9.6 | 0.00 | 0.00 | 0.00 | 42 | |
| 20260503195251 | 51 | 270 | 6.1 | 12.2 | 0.00 | 0.00 | 0.00 | 41 | |
| 20260503194744 | 50 | 214 | 2.6 | 6.1 | 0.00 | 0.00 | 0.00 | 42 | |
| 20260503194239 | 51 | 239 | 4.3 | 13.9 | 0.00 | 0.00 | 0.00 | 41 | |
| 20260503193735 | 51 | 279 | 9.6 | 11.3 | 0.00 | 0.00 | 0.00 | 40 | |
| 20260503193231 | 51 | 257 | 13.0 | 16.5 | 0.00 | 0.00 | 0.00 | 40 | |
| 20260503192727 | 51 | 310 | 4.3 | 9.6 | 0.00 | 0.00 | 0.00 | 42 | |
| 20260503192222 | 50 | 256 | 7.0 | 8.7 | 0.00 | 0.00 | 0.00 | 43 | |
| 20260503191720 | 51 | 263 | 7.0 | 8.7 | 0.00 | 0.00 | 0.00 | 42 | |
| 20260503191217 | 52 | 209 | 0.9 | 2.6 | 0.00 | 0.00 | 0.00 | 40 | |
| 20260503190714 | 50 | 248 | 2.6 | 8.7 | 0.00 | 0.00 | 0.00 | 45 | |
| 20260503190210 | 49 | 234 | 4.3 | 6.1 | 0.00 | 0.00 | 0.00 | 42 | |
| 20260503185708 | 50 | 212 | 2.6 | 12.2 | 0.00 | 0.00 | 0.00 | 43 | |
| 20260503185203 | 49 | 324 | 5.2 | 12.2 | 0.00 | 0.00 | 0.00 | 44 | |
| 20260503184657 | 48 | 278 | 5.2 | 9.6 | 0.00 | 0.00 | 0.00 | 43 | |
| 20260503184154 | 49 | 293 | 2.6 | 5.2 | 0.00 | 0.00 | 0.00 | 41 | |
| 20260503183650 | 50 | 267 | 7.8 | 9.6 | 0.00 | 0.00 | 0.00 | 43 | |
| 20260503183148 | 50 | 190 | 7.0 | 9.6 | 0.00 | 0.00 | 0.00 | 43 | |
| 20260503182646 | 48 | 196 | 2.6 | 3.5 | 0.00 | 0.00 | 0.00 | 45 | |
| 20260503182144 | 48 | 188 | 2.6 | 7.8 | 0.00 | 0.00 | 0.00 | 45 | |
| 20260503181641 | 47 | 263 | 4.3 | 9.6 | 0.00 | 0.00 | 0.00 | 49 | |
| 20260503181138 | 48 | 275 | 4.3 | 7.8 | 0.00 | 0.00 | 0.00 | 47 | |
| 20260503180635 | 49 | 251 | 8.7 | 14.8 | 0.00 | 0.00 | 0.00 | 45 | |
| 20260503180132 | 49 | 261 | 7.0 | 11.3 | 0.00 | 0.00 | 0.00 | 47 | |
| 20260503175629 | 48 | 233 | 7.8 | 12.2 | 0.00 | 0.00 | 0.00 | 47 | |
| 20260503175126 | 48 | 257 | 12.2 | 16.5 | 0.00 | 0.00 | 0.00 | 46 | |
| 20260503174623 | 46 | 286 | 7.8 | 13.9 | 0.00 | 0.00 | 0.00 | 49 | |
| 20260503174120 | 47 | 200 | 2.6 | 3.5 | 0.00 | 0.00 | 0.00 | 51 | |
| 20260503173615 | 47 | 241 | 6.1 | 7.8 | 0.00 | 0.00 | 0.00 | 49 | |
| 20260503173112 | 46 | 268 | 9.6 | 17.4 | 0.00 | 0.00 | 0.00 | 50 | |
| 20260503172609 | 46 | 271 | 7.0 | 9.6 | 0.00 | 0.00 | 0.00 | 51 | |
| 20260503172106 | 46 | 237 | 6.1 | 12.2 | 0.00 | 0.00 | 0.00 | 49 | |
| 20260503171602 | 47 | 252 | 3.5 | 9.6 | 0.00 | 0.00 | 0.00 | 48 | |
| 20260503171059 | 47 | 294 | 1.7 | 7.8 | 0.00 | 0.00 | 0.00 | 52 | |
| 20260503170550 | 46 | 268 | 5.2 | 9.6 | 0.00 | 0.00 | 0.00 | 50 | |
| 20260503150937 | 41 | 206 | 5.2 | 7.8 | 0.00 | 0.00 | 0.00 | 55 | |
| 20260503150433 | 41 | 237 | 6.1 | 12.2 | 0.00 | 0.00 | 0.00 | 58 | |
| 20260503131326 | 37 | 261 | 3.5 | 8.7 | 0.00 | 0.00 | 0.00 | 72 | |
| 20260503130824 | 37 | 325 | 2.6 | 7.8 | 0.00 | 0.00 | 0.00 | 74 | |
| 20260503130321 | 36 | 284 | 7.8 | 9.6 | 0.00 | 0.00 | 0.00 | 73 | |
| 20260503110714 | 32 | 205 | 0.0 | 3.5 | 0.00 | 0.00 | 0.00 | 90 | |
| 20260503110212 | 32 | 188 | 0.0 | 3.5 | 0.00 | 0.00 | 0.00 | 90 | |
| 20260503100138 | 32 | 193 | 1.7 | 5.2 | 0.00 | 0.00 | 0.00 | 90 |